User: anonymous   Login
Location: Franzen
(48.6167°N, 15.3833°E)
Time: 23:22:01
(UTC+00:00)
Language:

Cosmos 1782 - Orbit

View from above orbital plane
View from above orbital plane
View from above satellite
View from above satellite

Ground track
Ground track

The orbit data is extracted from the following two-line orbital elements,

1 16986U 86074A   21169.41143885  .00000083  00000-0  35183-5 0  9994
2 16986  82.5082 137.6986 0009682  29.1854 330.9913 15.07582454869902
Epoch (UTC): 18 June 2021 09:52:28
Eccentricity: 0.0009682
inclination: 82.5082°
perigee height: 537 km
apogee height: 550 km
right ascension of ascending node: 137.6986°
argument of perigee: 29.1854°
revolutions per day: 15.07582454
mean anomaly at epoch: 330.9913°
orbit number at epoch: 86990

The dashed part of the orbit path shows where the satellite is in the earth's shadow,  

DLR